Time,TemperatureF,DewpointF,PressureIn,WindDirection,WindDirectionDegrees,WindSpeedMPH,WindSpeedGustMPH,Humidity,HourlyPrecipIn,Conditions,Clouds,dailyrainin,SoftwareType,DateUTC
2013-12-10 08:38:00,34.1,32.0,30.26,NNE,28,5.0,5.0,92,0.00,,,0.06,Wunderground v.1.15,2013-12-10 14:38:00,
2013-12-10 08:43:00,34.2,32.1,30.26,NE,51,4.0,5.0,92,0.00,,,0.06,Wunderground v.1.15,2013-12-10 14:43:00,
2013-12-10 08:53:00,34.2,32.1,30.26,NNE,32,5.0,11.0,92,0.00,,,0.06,Wunderground v.1.15,2013-12-10 14:53:00,
2013-12-10 08:58:00,34.3,32.2,30.26,NW,325,5.0,6.0,92,0.00,,,0.06,Wunderground v.1.15,2013-12-10 14:58:00,
2013-12-10 09:03:00,34.4,32.0,30.27,North,5,5.0,15.0,91,0.00,,,0.06,Wunderground v.1.15,2013-12-10 15:03:00,
2013-12-10 09:08:00,34.5,32.1,30.27,NNE,17,5.0,15.0,91,0.00,,,0.06,Wunderground v.1.15,2013-12-10 15:08:00,
2013-12-10 09:13:00,34.5,31.9,30.27,NNE,26,5.0,15.0,90,0.00,,,0.06,Wunderground v.1.15,2013-12-10 15:13:00,
2013-12-10 09:18:00,34.6,32.0,30.28,NW,321,5.0,5.0,90,0.00,,,0.06,Wunderground v.1.15,2013-12-10 15:18:00,
2013-12-10 09:23:00,34.7,32.1,30.28,NNW,342,4.0,15.0,90,0.00,,,0.06,Wunderground v.1.15,2013-12-10 15:23:00,
2013-12-10 09:28:00,34.9,32.3,30.28,North,9,4.0,4.0,90,0.00,,,0.06,Wunderground v.1.15,2013-12-10 15:28:00,
2013-12-10 09:33:00,35.1,32.2,30.28,ENE,78,4.0,15.0,89,0.00,,,0.06,Wunderground v.1.15,2013-12-10 15:33:00,
2013-12-10 09:38:00,35.2,32.3,30.28,NE,40,5.0,15.0,89,0.00,,,0.06,Wunderground v.1.15,2013-12-10 15:38:00,
2013-12-10 09:43:00,35.3,32.1,30.28,NE,40,6.0,15.0,88,0.00,,,0.06,Wunderground v.1.15,2013-12-10 15:43:00,
2013-12-10 09:48:00,35.5,32.3,30.28,NNE,25,6.0,6.0,88,0.00,,,0.06,Wunderground v.1.15,2013-12-10 15:48:00,
2013-12-10 09:53:00,35.9,32.7,30.28,NE,34,5.0,15.0,88,0.00,,,0.06,Wunderground v.1.15,2013-12-10 15:53:00,
2013-12-10 09:58:00,36.3,32.8,30.28,NNE,26,4.0,15.0,87,0.00,,,0.06,Wunderground v.1.15,2013-12-10 15:58:00,
2013-12-10 10:03:00,36.2,32.4,30.28,NNE,28,6.0,15.0,86,0.00,,,0.06,Wunderground v.1.15,2013-12-10 16:03:00,
2013-12-10 10:08:00,36.2,32.4,30.28,North,360,7.0,7.0,86,0.00,,,0.06,Wunderground v.1.15,2013-12-10 16:08:00,
2013-12-10 10:13:00,36.2,32.4,30.28,North,360,6.0,15.0,86,0.00,,,0.06,Wunderground v.1.15,2013-12-10 16:13:00,
2013-12-10 10:18:00,36.3,32.5,30.28,NE,44,5.0,5.0,86,0.00,,,0.06,Wunderground v.1.15,2013-12-10 16:18:00,
2013-12-10 10:23:00,37.0,33.2,30.28,NNE,26,5.0,15.0,86,0.00,,,0.06,Wunderground v.1.15,2013-12-10 16:23:00,
2013-12-10 10:28:00,37.4,33.3,30.28,NNE,13,5.0,15.0,85,0.00,,,0.06,Wunderground v.1.15,2013-12-10 16:28:00,
2013-12-10 10:33:00,37.7,33.6,30.27,NNE,27,4.0,15.0,85,0.00,,,0.06,Wunderground v.1.15,2013-12-10 16:33:00,
2013-12-10 10:38:00,37.7,33.0,30.27,NNE,32,5.0,5.0,83,0.00,,,0.06,Wunderground v.1.15,2013-12-10 16:38:00,
2013-12-10 10:43:00,37.8,33.1,30.27,NNE,18,5.0,6.0,83,0.00,,,0.06,Wunderground v.1.15,2013-12-10 16:43:00,
2013-12-10 10:48:00,38.2,33.8,30.27,NE,54,5.0,5.0,84,0.00,,,0.06,Wunderground v.1.15,2013-12-10 16:48:00,
2013-12-10 10:53:00,38.9,34.2,30.27,NE,37,5.0,15.0,83,0.00,,,0.06,Wunderground v.1.15,2013-12-10 16:53:00,
2013-12-10 11:03:00,38.8,32.8,30.27,NNE,15,7.0,15.0,79,0.00,,,0.06,Wunderground v.1.15,2013-12-10 17:03:00,
2013-12-10 11:08:00,38.8,33.5,30.27,NNE,28,7.0,7.0,81,0.00,,,0.06,Wunderground v.1.15,2013-12-10 17:08:00,
2013-12-10 11:13:00,39.2,33.5,30.27,NE,43,6.0,15.0,80,0.00,,,0.06,Wunderground v.1.15,2013-12-10 17:13:00,
2013-12-10 11:18:00,39.2,33.5,30.27,ENE,67,6.0,15.0,80,0.00,,,0.06,Wunderground v.1.15,2013-12-10 17:18:00,
2013-12-10 11:23:00,39.6,33.9,30.27,NE,40,5.0,15.0,80,0.00,,,0.06,Wunderground v.1.15,2013-12-10 17:23:00,
2013-12-10 11:28:00,40.0,34.0,30.27,North,355,5.0,5.0,79,0.00,,,0.06,Wunderground v.1.15,2013-12-10 17:28:00,
2013-12-10 11:33:00,40.3,34.0,30.27,NE,47,5.0,11.0,78,0.00,,,0.06,Wunderground v.1.15,2013-12-10 17:33:00,
2013-12-10 11:38:00,40.1,33.5,30.27,NNE,24,6.0,6.0,77,0.00,,,0.06,Wunderground v.1.15,2013-12-10 17:38:00,
2013-12-10 11:43:00,40.5,34.2,30.27,NNE,31,6.0,7.0,78,0.00,,,0.06,Wunderground v.1.15,2013-12-10 17:43:00,
2013-12-10 11:48:00,41.0,34.0,30.26,NE,52,5.0,15.0,76,0.00,,,0.06,Wunderground v.1.15,2013-12-10 17:48:00,
2013-12-10 11:53:00,41.3,34.6,30.26,NNE,32,5.0,15.0,77,0.00,,,0.06,Wunderground v.1.15,2013-12-10 17:53:00,
2013-12-10 11:58:00,42.0,34.6,30.26,NNE,24,5.0,5.0,75,0.00,,,0.06,Wunderground v.1.15,2013-12-10 17:58:00,
2013-12-10 12:03:00,42.2,34.5,30.25,NNE,15,5.0,15.0,74,0.00,,,0.06,Wunderground v.1.15,2013-12-10 18:03:00,
2013-12-10 12:08:00,42.3,34.6,30.25,NE,42,5.0,15.0,74,0.00,,,0.06,Wunderground v.1.15,2013-12-10 18:08:00,
2013-12-10 12:13:00,42.7,34.3,30.25,NE,38,5.0,15.0,72,0.00,,,0.06,Wunderground v.1.15,2013-12-10 18:13:00,
2013-12-10 12:18:00,43.1,34.7,30.25,NE,40,5.0,15.0,72,0.00,,,0.06,Wunderground v.1.15,2013-12-10 18:18:00,
2013-12-10 12:23:00,43.2,34.8,30.25,NNE,22,5.0,15.0,72,0.00,,,0.06,Wunderground v.1.15,2013-12-10 18:23:00,
2013-12-10 12:28:00,43.7,34.9,30.25,NE,41,5.0,15.0,71,0.00,,,0.06,Wunderground v.1.15,2013-12-10 18:28:00,
2013-12-10 12:33:00,43.7,34.9,30.24,NE,38,5.0,15.0,71,0.00,,,0.06,Wunderground v.1.15,2013-12-10 18:33:00,
2013-12-10 12:38:00,43.8,34.6,30.24,NE,40,6.0,6.0,70,0.00,,,0.06,Wunderground v.1.15,2013-12-10 18:38:00,
2013-12-10 12:43:00,44.2,35.0,30.24,NNW,342,5.0,15.0,70,0.00,,,0.06,Wunderground v.1.15,2013-12-10 18:43:00,
2013-12-10 12:48:00,44.2,35.0,30.23,WNW,302,4.0,4.0,70,0.00,,,0.06,Wunderground v.1.15,2013-12-10 18:48:00,
2013-12-10 12:53:00,44.4,34.9,30.23,NNE,19,5.0,5.0,69,0.00,,,0.06,Wunderground v.1.15,2013-12-10 18:53:00,
2013-12-10 12:58:00,44.5,35.0,30.23,ENE,61,5.0,15.0,69,0.00,,,0.06,Wunderground v.1.15,2013-12-10 18:58:00,
2013-12-10 13:03:00,44.6,35.1,30.22,NNE,26,5.0,15.0,69,0.00,,,0.06,Wunderground v.1.15,2013-12-10 19:03:00,
2013-12-10 13:08:00,44.9,35.0,30.22,NW,313,5.0,5.0,68,0.00,,,0.06,Wunderground v.1.15,2013-12-10 19:08:00,
2013-12-10 13:13:00,45.0,35.4,30.22,NNE,26,5.0,7.0,69,0.00,,,0.06,Wunderground v.1.15,2013-12-10 19:13:00,
2013-12-10 13:18:00,45.0,35.1,30.22,NNE,23,5.0,5.0,68,0.00,,,0.06,Wunderground v.1.15,2013-12-10 19:18:00,
2013-12-10 13:23:00,45.1,35.2,30.22,NNE,30,4.0,7.0,68,0.00,,,0.06,Wunderground v.1.15,2013-12-10 19:23:00,
2013-12-10 13:28:00,45.3,34.6,30.22,NNE,23,4.0,15.0,66,0.00,,,0.06,Wunderground v.1.15,2013-12-10 19:28:00,
2013-12-10 13:33:00,45.4,35.1,30.21,NE,50,5.0,15.0,67,0.00,,,0.06,Wunderground v.1.15,2013-12-10 19:33:00,
2013-12-10 13:38:00,45.5,34.8,30.21,NE,34,5.0,15.0,66,0.00,,,0.06,Wunderground v.1.15,2013-12-10 19:38:00,
2013-12-10 13:48:00,45.3,34.6,30.21,ENE,61,6.0,15.0,66,0.00,,,0.06,Wunderground v.1.15,2013-12-10 19:48:00,
2013-12-10 13:53:00,45.4,35.1,30.21,NNE,18,5.0,15.0,67,0.00,,,0.06,Wunderground v.1.15,2013-12-10 19:53:00,
2013-12-10 13:58:00,45.7,35.0,30.21,NNE,23,5.0,15.0,66,0.00,,,0.06,Wunderground v.1.15,2013-12-10 19:58:00,
2013-12-10 14:03:00,45.7,34.6,30.20,NNE,33,6.0,15.0,65,0.00,,,0.06,Wunderground v.1.15,2013-12-10 20:03:00,
2013-12-10 14:08:00,45.9,35.2,30.20,ENE,68,6.0,6.0,66,0.00,,,0.06,Wunderground v.1.15,2013-12-10 20:08:00,
2013-12-10 14:13:00,46.0,34.9,30.20,NE,34,5.0,15.0,65,0.00,,,0.06,Wunderground v.1.15,2013-12-10 20:13:00,
2013-12-10 14:18:00,46.1,35.0,30.20,NNE,25,5.0,5.0,65,0.00,,,0.06,Wunderground v.1.15,2013-12-10 20:18:00,
2013-12-10 14:23:00,46.2,35.1,30.20,NE,34,4.0,15.0,65,0.00,,,0.06,Wunderground v.1.15,2013-12-10 20:23:00,
2013-12-10 14:28:00,46.0,34.9,30.20,NNE,27,5.0,15.0,65,0.00,,,0.06,Wunderground v.1.15,2013-12-10 20:28:00,
2013-12-10 14:33:00,46.1,35.0,30.20,NE,41,5.0,15.0,65,0.00,,,0.06,Wunderground v.1.15,2013-12-10 20:33:00,
2013-12-10 14:38:00,46.4,35.3,30.20,NNE,22,5.0,15.0,65,0.00,,,0.06,Wunderground v.1.15,2013-12-10 20:38:00,
2013-12-10 14:43:00,46.5,35.4,30.20,NNE,24,5.0,15.0,65,0.00,,,0.06,Wunderground v.1.15,2013-12-10 20:43:00,
2013-12-10 14:48:00,46.3,35.2,30.20,NW,314,5.0,5.0,65,0.00,,,0.06,Wunderground v.1.15,2013-12-10 20:48:00,
2013-12-10 14:53:00,46.2,35.1,30.20,NNE,32,5.0,15.0,65,0.00,,,0.06,Wunderground v.1.15,2013-12-10 20:53:00,
2013-12-10 14:58:00,46.4,35.7,30.20,NNE,24,5.0,5.0,66,0.00,,,0.06,Wunderground v.1.15,2013-12-10 20:58:00,
2013-12-10 15:03:00,46.5,35.4,30.20,NE,35,5.0,5.0,65,0.00,,,0.06,Wunderground v.1.15,2013-12-10 21:03:00,
2013-12-10 15:13:00,46.3,35.2,30.20,North,5,6.0,6.0,65,0.00,,,0.06,Wunderground v.1.15,2013-12-10 21:13:00,
2013-12-10 15:18:00,46.4,35.7,30.21,NNE,21,5.0,5.0,66,0.00,,,0.06,Wunderground v.1.15,2013-12-10 21:18:00,
2013-12-10 15:23:00,46.5,35.4,30.21,NNE,24,4.0,10.0,65,0.00,,,0.06,Wunderground v.1.15,2013-12-10 21:23:00,
2013-12-10 15:28:00,46.3,35.2,30.21,NNE,31,5.0,5.0,65,0.00,,,0.06,Wunderground v.1.15,2013-12-10 21:28:00,
2013-12-10 15:33:00,46.4,35.7,30.21,NE,36,5.0,12.0,66,0.00,,,0.06,Wunderground v.1.15,2013-12-10 21:33:00,
2013-12-10 15:38:00,46.5,36.1,30.21,NE,46,3.0,12.0,67,0.00,,,0.06,Wunderground v.1.15,2013-12-10 21:38:00,
2013-12-10 15:43:00,46.4,36.0,30.21,NNE,15,3.0,12.0,67,0.00,,,0.06,Wunderground v.1.15,2013-12-10 21:43:00,
2013-12-10 15:48:00,46.3,35.9,30.21,ENE,63,4.0,12.0,67,0.00,,,0.06,Wunderground v.1.15,2013-12-10 21:48:00,
2013-12-10 15:53:00,46.2,35.8,30.21,NNE,26,4.0,12.0,67,0.00,,,0.06,Wunderground v.1.15,2013-12-10 21:53:00,
2013-12-10 15:58:00,46.1,35.4,30.21,East,93,4.0,12.0,66,0.00,,,0.06,Wunderground v.1.15,2013-12-10 21:58:00,
2013-12-10 16:03:00,46.0,35.7,30.21,NNE,28,5.0,12.0,67,0.00,,,0.06,Wunderground v.1.15,2013-12-10 22:03:00,
2013-12-10 16:08:00,45.9,35.6,30.21,NE,53,4.0,4.0,67,0.00,,,0.06,Wunderground v.1.15,2013-12-10 22:08:00,
2013-12-10 16:13:00,45.8,35.1,30.21,NE,37,4.0,12.0,66,0.00,,,0.06,Wunderground v.1.15,2013-12-10 22:13:00,
2013-12-10 16:18:00,45.6,34.9,30.21,NE,41,4.0,12.0,66,0.00,,,0.06,Wunderground v.1.15,2013-12-10 22:18:00,
2013-12-10 16:23:00,45.3,34.6,30.21,NNE,25,4.0,12.0,66,0.00,,,0.06,Wunderground v.1.15,2013-12-10 22:23:00,
2013-12-10 16:28:00,45.1,34.4,30.21,NNE,31,4.0,4.0,66,0.00,,,0.06,Wunderground v.1.15,2013-12-10 22:28:00,
2013-12-10 16:33:00,44.9,34.6,30.22,NNE,19,3.0,12.0,67,0.00,,,0.06,Wunderground v.1.15,2013-12-10 22:33:00,
2013-12-10 16:38:00,44.6,34.3,30.22,NE,42,3.0,12.0,67,0.00,,,0.06,Wunderground v.1.15,2013-12-10 22:38:00,
2013-12-10 16:43:00,44.4,34.5,30.22,ENE,57,4.0,12.0,68,0.00,,,0.06,Wunderground v.1.15,2013-12-10 22:43:00,
2013-12-10 16:48:00,44.2,34.3,30.23,NNE,26,3.0,12.0,68,0.00,,,0.06,Wunderground v.1.15,2013-12-10 22:48:00,
2013-12-10 16:53:00,43.8,34.6,30.23,NE,40,3.0,12.0,70,0.00,,,0.06,Wunderground v.1.15,2013-12-10 22:53:00,
2013-12-10 16:58:00,43.5,34.7,30.23,NE,47,3.0,3.0,71,0.00,,,0.06,Wunderground v.1.15,2013-12-10 22:58:00,
2013-12-10 17:03:00,43.2,34.4,30.23,NNE,26,2.0,12.0,71,0.00,,,0.06,Wunderground v.1.15,2013-12-10 23:03:00,
2013-12-10 17:08:00,42.9,34.5,30.23,NE,47,2.0,2.0,72,0.00,,,0.06,Wunderground v.1.15,2013-12-10 23:08:00,
2013-12-10 17:13:00,42.6,34.5,30.23,NE,34,2.0,3.0,73,0.00,,,0.06,Wunderground v.1.15,2013-12-10 23:13:00,
2013-12-10 17:18:00,42.4,34.4,30.23,NE,34,2.0,12.0,73,0.00,,,0.06,Wunderground v.1.15,2013-12-10 23:18:00,
2013-12-10 17:23:00,42.2,34.5,30.23,NNE,24,2.0,12.0,74,0.00,,,0.06,Wunderground v.1.15,2013-12-10 23:23:00,
2013-12-10 17:28:00,41.8,34.5,30.23,NNE,24,2.0,12.0,75,0.00,,,0.06,Wunderground v.1.15,2013-12-10 23:28:00,
2013-12-10 17:38:00,41.2,34.5,30.23,NNE,24,0.0,12.0,77,0.00,,,0.06,Wunderground v.1.15,2013-12-10 23:38:00,
2013-12-10 17:43:00,40.9,34.2,30.23,NNE,24,0.0,12.0,77,0.00,,,0.06,Wunderground v.1.15,2013-12-10 23:43:00,
2013-12-10 17:48:00,40.6,34.3,30.23,NNE,24,1.0,12.0,78,0.00,,,0.06,Wunderground v.1.15,2013-12-10 23:48:00,
2013-12-10 17:53:00,40.3,34.6,30.23,NNE,24,1.0,12.0,80,0.00,,,0.06,Wunderground v.1.15,2013-12-10 23:53:00,
2013-12-10 17:58:00,40.0,34.3,30.23,NNE,24,1.0,12.0,80,0.00,,,0.06,Wunderground v.1.15,2013-12-10 23:58:00,
2013-12-10 18:03:00,39.7,34.0,30.24,NNE,24,1.0,12.0,80,0.00,,,0.06,Wunderground v.1.15,2013-12-11 00:03:00,
2013-12-10 18:08:00,39.4,34.1,30.24,NNE,24,1.0,1.0,81,0.00,,,0.06,Wunderground v.1.15,2013-12-11 00:08:00,
2013-12-10 18:13:00,39.1,34.1,30.24,NNE,24,0.0,12.0,82,0.00,,,0.06,Wunderground v.1.15,2013-12-11 00:13:00,
2013-12-10 18:18:00,38.9,34.2,30.24,NNE,24,1.0,12.0,83,0.00,,,0.06,Wunderground v.1.15,2013-12-11 00:18:00,
2013-12-10 18:23:00,38.5,34.1,30.24,NNE,24,1.0,12.0,84,0.00,,,0.06,Wunderground v.1.15,2013-12-11 00:23:00,
2013-12-10 18:28:00,38.4,34.0,30.24,NE,44,1.0,12.0,84,0.00,,,0.06,Wunderground v.1.15,2013-12-11 00:28:00,
2013-12-10 18:33:00,38.4,34.0,30.24,NE,44,1.0,12.0,84,0.00,,,0.06,Wunderground v.1.15,2013-12-11 00:33:00,
2013-12-10 18:38:00,38.3,33.9,30.24,NE,44,1.0,1.0,84,0.00,,,0.06,Wunderground v.1.15,2013-12-11 00:38:00,
2013-12-10 18:43:00,38.2,33.8,30.24,NE,44,1.0,12.0,84,0.00,,,0.06,Wunderground v.1.15,2013-12-11 00:43:00,
2013-12-10 18:48:00,38.1,33.7,30.24,NE,44,1.0,1.0,84,0.00,,,0.06,Wunderground v.1.15,2013-12-11 00:48:00,
2013-12-10 18:53:00,37.9,33.5,30.24,NE,44,0.0,12.0,84,0.00,,,0.06,Wunderground v.1.15,2013-12-11 00:53:00,
2013-12-10 18:58:00,37.8,33.7,30.24,NE,44,0.0,12.0,85,0.00,,,0.06,Wunderground v.1.15,2013-12-11 00:58:00,
2013-12-10 19:03:00,37.6,33.8,30.25,NE,44,0.0,12.0,86,0.00,,,0.06,Wunderground v.1.15,2013-12-11 01:03:00,
2013-12-10 19:08:00,37.3,33.5,30.25,NE,44,0.0,12.0,86,0.00,,,0.06,Wunderground v.1.15,2013-12-11 01:08:00,
2013-12-10 19:13:00,37.1,33.3,30.25,NE,44,0.0,12.0,86,0.00,,,0.06,Wunderground v.1.15,2013-12-11 01:13:00,
2013-12-10 19:18:00,36.9,33.1,30.25,NE,44,0.0,12.0,86,0.00,,,0.06,Wunderground v.1.15,2013-12-11 01:18:00,
2013-12-10 19:23:00,36.8,33.3,30.25,NE,44,0.0,12.0,87,0.00,,,0.06,Wunderground v.1.15,2013-12-11 01:23:00,
2013-12-10 19:28:00,36.6,33.1,30.25,NE,44,0.0,12.0,87,0.00,,,0.06,Wunderground v.1.15,2013-12-11 01:28:00,
2013-12-10 19:33:00,36.4,32.9,30.24,NE,44,0.0,12.0,87,0.00,,,0.06,Wunderground v.1.15,2013-12-11 01:33:00,
2013-12-10 19:38:00,36.2,33.0,30.24,NE,44,0.0,12.0,88,0.00,,,0.06,Wunderground v.1.15,2013-12-11 01:38:00,
2013-12-10 19:43:00,36.0,32.8,30.24,NE,44,0.0,12.0,88,0.00,,,0.06,Wunderground v.1.15,2013-12-11 01:43:00,
2013-12-10 19:48:00,35.9,32.7,30.25,NE,44,0.0,12.0,88,0.00,,,0.06,Wunderground v.1.15,2013-12-11 01:48:00,
2013-12-10 19:53:00,35.7,32.8,30.25,NE,44,0.0,12.0,89,0.00,,,0.06,Wunderground v.1.15,2013-12-11 01:53:00,
2013-12-10 19:58:00,35.6,32.7,30.25,NE,44,0.0,12.0,89,0.00,,,0.06,Wunderground v.1.15,2013-12-11 01:58:00,
2013-12-10 20:03:00,35.5,32.6,30.26,NE,44,0.0,12.0,89,0.00,,,0.06,Wunderground v.1.15,2013-12-11 02:03:00,
2013-12-10 20:08:00,35.3,32.4,30.26,NE,44,0.0,12.0,89,0.00,,,0.06,Wunderground v.1.15,2013-12-11 02:08:00,
2013-12-10 20:13:00,35.2,32.6,30.26,NE,44,0.0,12.0,90,0.00,,,0.06,Wunderground v.1.15,2013-12-11 02:13:00,
2013-12-10 20:18:00,35.1,32.5,30.26,NE,44,0.0,12.0,90,0.00,,,0.06,Wunderground v.1.15,2013-12-11 02:18:00,
2013-12-10 20:23:00,34.9,32.3,30.26,NE,44,0.0,12.0,90,0.00,,,0.06,Wunderground v.1.15,2013-12-11 02:23:00,
2013-12-10 20:28:00,34.7,32.1,30.26,NE,44,0.0,12.0,90,0.00,,,0.06,Wunderground v.1.15,2013-12-11 02:28:00,
2013-12-10 20:33:00,34.5,31.9,30.26,NE,44,0.0,12.0,90,0.00,,,0.06,Wunderground v.1.15,2013-12-11 02:33:00,
2013-12-10 20:38:00,34.3,31.7,30.26,NE,44,0.0,12.0,90,0.00,,,0.06,Wunderground v.1.15,2013-12-11 02:38:00,
2013-12-10 20:43:00,34.0,31.4,30.26,NE,44,0.0,12.0,90,0.00,,,0.06,Wunderground v.1.15,2013-12-11 02:43:00,
2013-12-10 20:48:00,33.9,31.6,30.26,NE,44,0.0,12.0,91,0.00,,,0.06,Wunderground v.1.15,2013-12-11 02:48:00,
2013-12-10 20:53:00,33.8,31.5,30.26,NE,44,0.0,12.0,91,0.00,,,0.06,Wunderground v.1.15,2013-12-11 02:53:00,
2013-12-10 20:58:00,33.8,31.5,30.26,NE,44,1.0,12.0,91,0.00,,,0.06,Wunderground v.1.15,2013-12-11 02:58:00,
2013-12-10 21:03:00,33.7,31.6,30.26,NE,44,1.0,12.0,92,0.00,,,0.06,Wunderground v.1.15,2013-12-11 03:03:00,
2013-12-10 21:08:00,33.7,31.6,30.26,NE,44,0.0,12.0,92,0.00,,,0.06,Wunderground v.1.15,2013-12-11 03:08:00,
2013-12-10 21:13:00,33.7,31.6,30.26,NE,44,0.0,12.0,92,0.00,,,0.06,Wunderground v.1.15,2013-12-11 03:13:00,
2013-12-10 21:18:00,33.5,31.4,30.26,NE,44,0.0,12.0,92,0.00,,,0.06,Wunderground v.1.15,2013-12-11 03:18:00,
2013-12-10 21:23:00,33.4,31.3,30.26,NE,44,0.0,12.0,92,0.00,,,0.06,Wunderground v.1.15,2013-12-11 03:23:00,
2013-12-10 21:28:00,33.2,31.1,30.26,NE,44,0.0,12.0,92,0.00,,,0.06,Wunderground v.1.15,2013-12-11 03:28:00,
2013-12-10 21:33:00,33.0,30.9,30.26,NE,44,0.0,12.0,92,0.00,,,0.06,Wunderground v.1.15,2013-12-11 03:33:00,
2013-12-10 21:43:00,32.7,30.6,30.26,NE,44,0.0,12.0,92,0.00,,,0.06,Wunderground v.1.15,2013-12-11 03:43:00,
2013-12-10 21:48:00,32.5,30.2,30.26,NE,44,0.0,12.0,91,0.00,,,0.06,Wunderground v.1.15,2013-12-11 03:48:00,
2013-12-10 21:53:00,32.2,30.1,30.26,NE,44,0.0,12.0,92,0.00,,,0.06,Wunderground v.1.15,2013-12-11 03:53:00,
2013-12-10 21:58:00,32.0,29.9,30.26,NE,44,0.0,12.0,92,0.00,,,0.06,Wunderground v.1.15,2013-12-11 03:58:00,
2013-12-10 22:03:00,31.9,29.8,30.26,NE,44,0.0,12.0,92,0.00,,,0.06,Wunderground v.1.15,2013-12-11 04:03:00,
2013-12-10 22:08:00,31.8,29.7,30.26,NE,44,0.0,12.0,92,0.00,,,0.06,Wunderground v.1.15,2013-12-11 04:08:00,
2013-12-10 22:13:00,31.7,29.6,30.26,NE,44,0.0,12.0,92,0.00,,,0.06,Wunderground v.1.15,2013-12-11 04:13:00,
2013-12-10 22:18:00,31.6,29.5,30.27,NE,44,0.0,12.0,92,0.00,,,0.06,Wunderground v.1.15,2013-12-11 04:18:00,
2013-12-10 22:23:00,31.5,29.4,30.27,NE,44,0.0,12.0,92,0.00,,,0.06,Wunderground v.1.15,2013-12-11 04:23:00,
2013-12-10 22:28:00,31.4,29.3,30.27,NE,44,0.0,12.0,92,0.00,,,0.06,Wunderground v.1.15,2013-12-11 04:28:00,
2013-12-10 22:33:00,31.4,29.6,30.26,NE,44,0.0,12.0,93,0.00,,,0.06,Wunderground v.1.15,2013-12-11 04:33:00,
2013-12-10 22:38:00,31.4,29.6,30.26,NE,44,0.0,12.0,93,0.00,,,0.06,Wunderground v.1.15,2013-12-11 04:38:00,
2013-12-10 22:43:00,31.3,29.5,30.26,NE,44,0.0,12.0,93,0.00,,,0.06,Wunderground v.1.15,2013-12-11 04:43:00,
2013-12-10 22:48:00,31.2,29.4,30.27,NE,44,0.0,12.0,93,0.00,,,0.06,Wunderground v.1.15,2013-12-11 04:48:00,
2013-12-10 22:53:00,31.2,29.4,30.27,NE,44,0.0,12.0,93,0.00,,,0.06,Wunderground v.1.15,2013-12-11 04:53:00,
2013-12-10 22:58:00,31.1,29.3,30.27,NE,44,0.0,12.0,93,0.00,,,0.06,Wunderground v.1.15,2013-12-11 04:58:00,
2013-12-10 23:03:00,31.1,29.3,30.26,NE,44,0.0,12.0,93,0.00,,,0.06,Wunderground v.1.15,2013-12-11 05:03:00,
2013-12-10 23:08:00,31.2,29.4,30.26,NE,44,0.0,12.0,93,0.00,,,0.06,Wunderground v.1.15,2013-12-11 05:08:00,
2013-12-10 23:13:00,31.2,29.4,30.26,NE,44,0.0,12.0,93,0.00,,,0.06,Wunderground v.1.15,2013-12-11 05:13:00,
2013-12-10 23:18:00,31.2,29.4,30.27,NE,44,0.0,12.0,93,0.00,,,0.06,Wunderground v.1.15,2013-12-11 05:18:00,
2013-12-10 23:23:00,31.1,29.3,30.27,NE,44,0.0,12.0,93,0.00,,,0.06,Wunderground v.1.15,2013-12-11 05:23:00,
2013-12-10 23:28:00,31.0,29.2,30.27,NE,44,0.0,12.0,93,0.00,,,0.06,Wunderground v.1.15,2013-12-11 05:28:00,
2013-12-10 23:33:00,30.8,29.0,30.26,NE,44,0.0,12.0,93,0.00,,,0.06,Wunderground v.1.15,2013-12-11 05:33:00,
2013-12-10 23:38:00,30.7,28.9,30.26,NE,44,0.0,12.0,93,0.00,,,0.06,Wunderground v.1.15,2013-12-11 05:38:00,
2013-12-10 23:43:00,30.6,28.8,30.26,NE,44,0.0,12.0,93,0.00,,,0.06,Wunderground v.1.15,2013-12-11 05:43:00,
2013-12-10 23:48:00,30.7,28.9,30.26,NE,44,1.0,12.0,93,0.00,,,0.06,Wunderground v.1.15,2013-12-11 05:48:00,
2013-12-10 23:53:00,30.8,29.3,30.26,NE,44,1.0,12.0,94,0.00,,,0.06,Wunderground v.1.15,2013-12-11 05:53:00,
2013-12-10 23:58:00,31.0,29.5,30.26,NE,36,1.0,12.0,94,0.00,,,0.06,Wunderground v.1.15,2013-12-11 05:58:00,